Flag for U.S.A. Weather past 2 weeks in Bloomington, Indiana, U.S.A.

Now
76 °F

Partly sunny.


Feels Like: 78 °F
Forecast: 61 / 76 °F
Wind: 14 mph from Northeast

Location: Monroe County Airport

Current Time: Jul 24, 2014 at 4:20:43 PM

Latest Report: Jul 24, 2014 at 3:53 PM


Visibility: 10 mi

Pressure: 30.06 "Hg

Humidity: 47%

Dew point: 54 °F

Location of BloomingtonLocation

Historic Weather in Bloomington — Graph

°F

Bloomington temperature yesterday

Maximum temperature yesterday: 78 °F (at 1:53 PM)
Minimum temperature yesterday: 64 °F (at 11:53 PM)
Average temperature yesterday: 72 °F

Past Weeks' High & Low Weather Summary

 TemperatureHumidityPressure
High87 °F (Jul 13, 2:53 PM)97% (Jul 21, 6:53 AM)30.21 "Hg (Jul 21, 6:53 AM)
Low51 °F (Jul 17, 5:53 AM)38% (Jul 11, 3:53 PM)29.83 "Hg (Jul 14, 2:53 PM)
Average69 °F75%30.04 "Hg
* Reported Jul 9 2:53 PM — Jul 24 2:53 PM, Bloomington, Weather by CustomWeather, © 2014

Note: Actual official high and low records may vary slightly from our data, if they occured in-between our weather recording intervals... More about our weather records

Advertising

Bloomington weather history for previous 24 hours

 ConditionsComfort  
Time TempWeatherWind HumidityBarometerVisibility
2:53 PM
Jul 24
77 °FPassing clouds.7 mph47%30.07 "Hg10 mi
1:53 PM75 °FScattered clouds.13 mph50%30.07 "Hg10 mi
12:53 PM75 °FScattered clouds.10 mph52%30.08 "Hg10 mi
11:53 AM73 °FSunny.10 mph53%30.09 "Hg10 mi
10:53 AM71 °FSunny.13 mph61%30.09 "Hg10 mi
9:53 AM68 °FSunny.12 mph70%30.08 "Hg10 mi
8:53 AM65 °FSunny.9 mph78%30.07 "Hg10 mi
7:53 AM61 °FSunny.8 mph87%30.06 "Hg10 mi
6:53 AM59 °FClear.9 mph90%30.03 "Hg10 mi
5:53 AM59 °FPassing clouds.7 mph90%30.03 "Hg10 mi
4:53 AM60 °FPassing clouds.8 mph86%30.02 "Hg10 mi
3:53 AM60 °FMostly cloudy.10 mph86%30.01 "Hg10 mi
2:53 AM60 °FPassing clouds.7 mph86%30.02 "Hg10 mi
1:53 AM61 °FPassing clouds.6 mph87%30.03 "Hg10 mi
12:53 AM62 °FClear.9 mph83%30.04 "Hg10 mi
11:53 PM
Jul 23
64 °FClear.8 mph78%30.04 "Hg10 mi
10:53 PM66 °FClear.8 mph75%30.04 "Hg10 mi
9:53 PM71 °FOvercast.9 mph68%30.03 "Hg10 mi
8:53 PM73 °FOvercast.13 mph74%30.00 "Hg10 mi
7:53 PM73 °FOvercast.7 mph81%29.99 "Hg10 mi
6:53 PM73 °FOvercast.9 mph81%30.00 "Hg8 mi
5:53 PM74 °FMore clouds than sun.8 mph85%29.98 "Hg10 mi
4:53 PM75 °FMostly cloudy.5 mph82%29.99 "Hg10 mi
Weather by CustomWeather, © 2014

See weather overviewHow to use our weather pages